Theta_e
305 305 306 306 306 306 306 306 306 306 306 306 306 305 304 304 302 300 303 303 303 301 295 294 295 295 296 295 296 296 297 301 300 301 301 299 298 298 295 296 295 299 297 298 298
305 305 305 305 306 306 307 307 307 307 306 306 306 305 304 303 301 300 303 303 301 297 294 294 294 295 294 296 296 294 295 297 299 299 299 298 295 294 295 294 295 294 295 295 296
305 305 305 305 306 306 306 307 307 307 306 306 305 304 303 301 300 302 304 301 299 293 293 294 295 295 295 296 295 296 297 297 298 298 298 296 294 294 293 293 294 292 293 294 294
305 305 305 305 305 306 306 306 307 306 305 304 303 302 298 300 299 301 301 298 294 293 293 294 294 294 295 295 295 294 295 295 296 296 295 294 294 294 292 293 293 292 292 293 293
305 305 305 305 305 306 306 306 306 305 304 302 301 300 300 300 300 301 298 295 293 293 294 294 293 293 293 293 293 293 294 294 294 293 293 294 294 293 293 292 291 292 294 293 293
305 304 304 305 305 305 305 305 305 304 302 300 300 300 301 300 297 299 296 293 293 293 293 293 293 293 292 292 292 293 293 293 293 294 294 294 294 294 293 293 293 292 291 292 292
304 304 303 304 304 304 304 304 304 304 297 297 299 299 300 299 296 298 296 293 293 294 293 293 293 293 292 292 293 293 292 292 292 293 293 294 293 293 293 294 293 290 290 291 291
303 303 303 303 303 303 303 301 304 304 295 294 295 299 297 297 295 295 294 294 295 294 293 293 293 292 292 292 292 292 291 292 293 294 294 294 294 294 292 290 290 290 288 289 291
303 302 302 302 301 301 303 300 300 299 295 295 299 299 297 294 294 293 294 294 293 293 293 293 293 291 292 292 291 291 294 294 294 295 294 293 293 293 293 293 293 292 291 291 291
302 301 301 301 301 301 303 300 299 296 297 295 295 295 296 296 295 295 293 293 293 292 293 293 292 292 291 291 294 295 293 294 296 295 294 294 293 293 293 293 293 293 292 290 291
301 301 301 301 301 302 302 298 296 296 294 294 294 295 296 295 295 295 294 293 293 293 292 293 292 293 292 292 293 292 294 294 293 294 294 294 293 293 293 292 291 292 292 291 290
300 300 300 300 300 302 300 297 296 295 295 293 295 295 295 294 295 295 293 292 293 292 291 292 293 293 293 293 292 293 294 294 294 292 292 291 291 292 291 291 291 290 291 290 290
299 299 300 299 300 300 297 296 295 294 293 295 296 295 294 293 294 294 292 292 292 291 293 291 292 293 292 292 293 294 294 295 292 291 291 290 290 290 290 291 291 291 290 289 289
297 299 299 299 300 299 297 297 294 294 292 302 295 295 294 294 294 295 293 292 292 292 292 291 292 292 292 293 293 294 293 293 292 291 290 290 291 290 290 290 291 291 290 289 289
297 298 299 299 298 299 298 297 295 293 301 297 293 293 293 293 295 295 292 292 291 292 290 292 291 292 293 293 292 291 292 292 291 290 288 290 291 289 291 293 292 290 290 289 288
297 297 297 297 298 298 296 296 296 296 300 298 294 295 295 295 295 294 293 292 292 292 293 292 292 292 292 292 291 292 290 290 286 281 281 288 291 289 291 292 291 289 288 288 287
297 296 296 297 296 296 296 295 298 298 299 298 297 295 294 295 294 291 290 288 286 287 286 290 291 291 290 287 284 281 283 286 280 278 280 288 287 288 292 291 291 289 288 288 287
297 296 296 297 296 295 296 295 296 293 296 296 295 294 295 292 292 289 286 284 289 284 286 288 286 289 288 288 288 285 285 286 289 287 288 288 281 291 291 291 290 288 287 287 285
296 296 297 297 295 296 292 293 297 298 296 295 292 291 292 293 289 285 283 284 286 285 286 286 285 286 287 288 288 283 281 286 289 274 280 285 288 289 291 289 288 287 288 285 284
295 295 296 296 294 296 291 300 297 296 295 293 292 290 286 289 285 284 285 287 284 286 286 281 285 286 286 286 286 287 290 288 281 288 279 282 286 286 286 285 288 287 286 284 282
294 292 295 294 295 291 292 292 295 295 294 292 292 293 291 289 286 284 287 288 286 284 285 275 280 283 282 280 282 282 280 287 286 285 286 280 283 281 279 279 282 284 287 283 280
294 293 294 294 291 285 289 291 296 294 293 293 292 292 291 286 282 286 288 288 286 285 279 281 285 282 280 280 282 283 280 283 289 283 277 278 285 278 276 283 280 285 287 284 281
294 291 294 294 293 294 293 294 295 295 293 289 290 292 288 286 285 285 287 286 286 285 281 283 285 285 280 277 281 278 285 289 284 277 279 278 282 281 287 286 286 286 284 281 280
293 295 290 289 291 293 293 291 291 293 292 292 291 291 286 282 286 284 287 287 286 286 288 284 273 279 282 279 271 276 277 278 278 283 277 283 283 285 287 286 287 286 283 277 274
293 293 290 290 291 294 294 293 293 293 292 291 288 289 288 289 283 286 285 286 286 286 281 282 279 271 277 278 270 278 278 280 274 284 285 284 283 286 286 286 286 281 278 277 276
294 293 290 287 291 292 292 293 294 293 291 290 289 289 287 288 288 287 286 285 284 282 280 280 282 273 282 274 271 274 282 283 284 283 284 286 282 281 284 284 284 280 274 275 274
292 291 292 292 291 290 292 293 293 293 292 291 289 288 288 288 286 286 286 285 283 283 281 283 281 277 277 274 276 285 282 279 278 274 279 284 283 279 285 284 284 278 271 271 272
Wind_Speed
20 20 21 22 22 23 23 23 23 25 23 24 23 22 21 16 16 10 5 2 3 6 5 8 9 14 7 2 4 1 1 6 8 11 19 4 6 5 7 4 4 3 2 5 26
22 23 23 23 23 23 23 23 23 25 23 22 21 20 18 14 16 9 3 3 3 4 8 10 6 9 3 3 2 4 4 9 7 8 11 16 2 7 7 16 19 11 4 12 27
22 23 24 25 25 25 26 27 26 27 24 24 21 14 11 10 4 2 6 2 3 6 6 6 8 4 1 2 4 6 13 17 13 16 16 18 16 4 6 17 16 10 9 10 9
23 25 27 27 28 28 30 31 29 31 29 25 15 9 6 3 5 4 5 1 4 7 8 8 5 3 2 3 4 9 12 16 18 10 11 18 20 19 13 23 10 14 8 9 14
25 27 28 29 30 31 31 31 31 29 30 17 11 6 2 1 2 9 2 2 4 7 8 5 5 3 3 5 9 14 20 13 13 12 15 16 19 21 23 14 10 14 16 11 12
26 28 29 30 32 34 35 34 33 28 20 13 4 4 1 1 3 4 2 2 4 6 7 7 3 5 7 6 6 5 14 18 14 19 17 19 28 19 26 23 18 14 11 10 11
27 29 31 32 33 36 38 38 33 27 17 6 3 1 2 4 1 4 2 0 4 4 3 6 7 3 5 6 8 7 22 21 17 16 18 23 28 23 22 25 20 13 10 10 9
27 31 34 35 35 36 38 37 31 21 10 5 3 1 3 1 4 3 3 7 9 8 7 9 6 3 3 5 5 8 6 10 8 8 10 16 23 17 9 9 10 12 9 8 10
27 32 35 36 38 40 34 35 23 10 5 5 2 1 2 2 4 4 3 3 11 10 9 9 1 4 3 5 4 6 14 18 20 15 18 18 26 23 20 17 16 13 12 11 11
29 33 35 35 36 36 32 27 14 4 16 1 3 2 1 4 4 9 6 6 3 6 5 3 2 2 3 1 13 21 24 23 22 13 20 22 25 20 17 14 18 17 14 12 12
30 33 34 34 35 27 27 9 8 5 10 2 8 5 5 16 6 2 2 4 3 2 3 3 7 12 17 8 14 18 17 20 21 20 18 19 21 23 19 17 15 16 16 13 5
33 35 33 35 34 19 10 7 4 4 8 8 7 5 9 4 3 1 2 2 1 7 6 5 12 15 14 13 19 17 21 21 16 17 17 18 20 22 20 16 13 8 3 6 5
33 36 35 37 19 15 12 8 4 1 3 6 3 2 0 1 4 3 4 1 5 5 4 4 13 15 11 16 19 17 17 15 17 18 18 16 12 18 25 17 16 13 7 6 8
35 35 33 34 4 19 3 14 5 0 4 2 1 2 1 3 3 5 3 0 4 5 4 8 4 13 14 15 16 15 13 13 17 15 12 6 13 17 16 12 10 11 8 7 10
33 35 33 19 15 6 10 11 7 1 4 2 2 1 1 1 5 1 3 2 6 11 1 9 14 19 15 13 13 9 5 12 11 16 7 19 3 7 12 6 4 9 10 9 7
35 37 31 15 12 4 15 10 3 4 5 2 2 3 4 3 3 3 4 3 9 8 8 13 9 5 14 8 5 8 4 14 5 2 2 6 6 4 7 3 5 5 7 7 7
34 40 20 15 8 17 17 2 4 4 5 7 4 5 14 5 5 6 7 8 2 8 8 15 7 3 5 8 7 8 5 4 5 4 5 8 8 3 5 6 3 2 9 8 7
29 39 19 11 14 13 8 5 3 2 2 5 7 17 4 8 5 8 6 6 5 5 5 6 8 9 17 13 11 5 5 2 5 5 12 12 3 3 2 4 2 6 8 7 6
25 30 7 8 10 11 4 3 5 2 2 7 7 4 4 3 5 8 4 3 3 3 4 6 6 23 16 19 3 7 2 5 3 0 3 3 6 5 3 3 7 8 9 8 9
18 9 4 8 8 5 4 4 1 4 4 4 1 1 3 6 4 7 3 4 1 6 2 6 17 4 12 9 5 5 5 5 4 4 5 5 5 3 13 7 16 14 12 11 8
7 3 4 7 6 3 2 5 3 2 6 1 3 5 5 4 0 3 6 9 4 4 5 2 5 9 8 2 6 7 3 3 1 3 2 4 6 7 6 5 12 12 14 8 9
1 3 1 5 3 1 1 4 3 2 1 3 2 3 3 2 4 4 6 4 8 10 2 5 4 7 11 12 6 5 4 4 2 6 2 3 9 3 4 8 4 14 14 11 8
1 3 2 1 2 2 2 3 4 2 4 2 4 5 2 3 4 5 7 3 12 7 4 5 3 9 9 7 5 3 3 5 2 2 5 3 6 6 16 15 15 14 11 9 12
1 3 3 2 1 3 2 3 3 2 3 4 4 3 1 2 6 7 11 7 14 15 21 4 1 7 8 10 3 7 7 2 5 2 4 8 13 18 18 15 17 16 9 8 8
2 4 3 3 3 3 2 2 8 4 5 3 2 6 4 5 5 13 7 16 11 8 3 3 5 4 9 14 5 11 11 16 3 13 6 11 7 17 14 14 13 8 8 11 13
4 3 2 3 1 4 5 5 8 4 5 5 5 5 5 6 10 23 16 12 6 4 3 2 4 2 13 8 5 5 13 13 13 8 7 8 8 6 8 9 9 9 7 10 14
10 5 3 5 5 5 5 6 6 4 7 6 5 5 8 14 7 12 12 16 11 10 2 3 0 3 5 3 3 2 6 4 4 4 4 2 7 6 17 17 14 8 4 7 11
Wind_Direction
8 5 2 358 356 354 351 348 343 341 339 335 330 328 327 326 327 330 258 191 182 325 2 360 12 6 338 211 207 160 275 241 243 252 272 6 8 326 301 277 295 264 3 266 320
6 3 360 356 354 351 347 345 342 339 336 331 325 319 320 325 323 301 168 167 283 359 20 9 355 327 352 253 248 155 209 233 219 264 290 307 343 299 314 304 288 299 313 343 328
4 0 357 354 352 349 346 343 340 338 334 326 318 313 313 322 292 129 122 116 20 31 8 315 293 310 289 290 260 223 245 262 263 293 303 306 299 249 268 269 283 286 304 315 308
2 0 356 353 351 348 345 342 338 337 333 327 325 315 317 340 357 149 143 96 42 37 359 355 358 26 295 262 281 297 276 282 293 296 302 288 294 283 249 266 275 286 264 288 290
0 358 354 351 347 343 340 338 338 335 334 332 330 330 26 343 242 143 170 86 46 12 351 356 8 344 274 281 311 268 278 284 306 312 294 296 288 278 280 292 263 268 277 272 262
357 354 352 349 344 340 337 336 336 336 334 331 332 347 342 315 115 172 169 85 30 3 345 349 322 296 271 241 253 291 302 291 298 290 290 285 277 282 285 276 270 259 253 268 267
355 353 350 346 343 339 335 333 334 335 334 351 334 285 279 238 99 169 215 267 303 304 304 302 327 44 322 292 277 290 303 297 280 273 273 277 278 276 278 276 268 241 233 255 242
352 351 347 345 342 340 333 336 333 330 336 3 343 226 258 280 119 198 262 277 293 256 262 273 280 262 227 279 301 301 272 284 292 300 315 309 292 293 297 304 289 294 278 272 273
350 349 347 343 341 341 340 342 342 327 354 3 18 183 299 77 76 15 307 304 309 297 289 267 240 223 318 282 322 234 283 295 311 321 298 292 292 299 293 288 288 280 270 277 266
348 347 344 341 341 341 341 349 348 46 3 339 333 17 34 328 351 310 297 261 274 317 318 128 174 264 273 12 298 314 308 305 301 312 311 297 292 295 301 295 287 282 279 269 263
347 344 340 339 338 340 340 345 9 351 26 306 296 267 295 322 292 227 283 310 230 265 303 248 299 281 293 275 297 312 311 307 307 307 306 301 293 294 288 281 282 282 286 287 111
347 345 342 338 340 353 28 62 89 285 314 297 267 264 271 318 320 178 297 315 304 273 302 334 268 272 304 310 308 302 298 301 301 308 301 293 294 290 280 279 276 285 119 121 106
347 346 343 338 349 1 60 45 357 277 280 297 227 265 254 329 315 256 169 300 239 261 260 221 274 308 326 319 306 304 299 303 303 313 302 296 292 297 300 291 276 260 153 87 70
344 346 344 341 27 349 43 356 17 137 50 238 201 228 220 215 287 286 170 254 317 288 282 272 252 312 310 302 295 298 304 303 306 323 305 317 300 301 298 314 53 84 77 54 37
342 344 343 348 313 356 324 332 328 216 352 213 190 218 303 19 301 65 23 43 249 273 335 264 301 297 297 280 291 274 307 290 296 291 323 305 228 284 309 266 94 58 46 27 10
341 342 344 349 335 312 327 314 273 39 270 342 99 5 358 308 279 15 4 356 276 296 240 261 272 261 262 288 288 305 334 305 314 92 355 261 348 264 292 345 51 15 18 341 299
339 340 346 331 329 325 332 355 10 123 330 335 342 2 327 331 334 50 328 333 317 342 342 317 279 315 27 339 341 23 1 309 350 357 237 317 334 296 25 53 64 19 330 321 339
340 339 342 327 332 341 350 36 100 244 326 9 349 318 279 23 339 349 334 336 30 38 307 347 321 23 338 312 288 269 175 204 295 304 299 312 255 292 225 104 49 342 300 304 316
333 337 352 340 347 352 57 39 212 291 345 335 327 7 311 33 23 15 328 254 115 71 20 310 271 318 289 303 272 296 356 231 266 63 47 257 297 287 143 342 314 311 331 311 323
330 320 334 342 347 5 78 250 337 25 22 44 260 46 294 327 21 25 312 250 177 45 64 261 303 324 328 332 356 336 290 317 344 306 306 294 286 252 312 310 330 325 325 315 312
333 350 355 356 347 47 153 239 303 344 63 326 258 289 264 330 217 252 259 286 48 334 36 232 220 289 348 320 291 324 329 295 213 169 287 318 282 238 245 264 306 308 318 316 313
5 314 252 334 57 112 260 209 217 259 215 252 291 255 250 331 279 242 249 220 3 337 323 233 272 284 251 260 242 212 254 192 319 323 231 194 283 258 230 303 278 311 319 329 323
265 262 308 103 123 216 275 269 251 233 221 201 250 222 159 197 319 239 254 265 308 345 299 281 240 314 323 354 356 34 341 324 8 44 215 162 273 303 323 323 323 319 315 326 332
187 312 304 37 192 163 231 240 259 323 260 252 250 278 353 267 218 272 269 308 326 302 298 35 304 180 258 253 181 308 290 290 159 246 247 244 290 307 314 320 320 326 328 324 318
156 228 202 259 259 197 122 227 276 266 201 215 295 220 223 277 277 266 271 301 306 281 39 122 259 186 246 257 209 255 273 288 189 263 254 286 297 295 302 307 309 304 324 337 330
171 186 160 233 207 184 212 208 250 241 180 233 212 246 239 257 260 291 301 297 269 307 51 263 269 68 295 280 204 264 269 256 262 266 237 263 279 250 291 305 312 308 329 334 323
200 177 147 204 173 160 214 195 214 180 215 225 232 249 252 268 238 259 264 273 247 263 270 240 224 19 271 297 326 302 258 238 266 239 176 283 256 313 325 323 323 312 329 309 310